Aérodrome :
LOGIN :

S'inscrire | Disclaimer

   EN    FR    IT 

 










Légende :    VFR   VFR Marginal   IFR   IFR Intensif   IFR Très Intensif
Visi : 
Plafond : 
>= 8 km
>= 3000ft
5 à 8 km
1000 à 3000 ft
1500m à 5 km
500 à 1000 ft
800 à 1500m
200 à 500 ft
< 800m
< 200 ft
Symboles :   Orages  Brouillard  Fortes neiges  Fortes précipitations  Vent > 20 kt
SIGMETs :   Divers  Orages  Givrage  Turbulence  Onde Orograph.  Cendres Volcan.







- Altitude de l'aérodrome : 479 ft
- Code IATA : DOL
- Voir les cartes d'approche


LFRG - Deauville

DERNIER METAR :
  • 240000Z AUTO VRB04KT 9999 -RA BKN005/// OVC013/// ///CB 09/08 Q1006

METARs EXPIRÉS :
  • 232330Z AUTO VRB02KT 4700 -RA BR BKN004/// OVC015/// ///TCU 09/08 Q1006
  • 232300Z AUTO 18003KT 130V200 9999 -RADZ OVC004/// ///TCU 09/08 Q1006
  • 232230Z AUTO 19007KT 150V210 9999 BKN010/// BKN018/// BKN027/// ///TCU 09/08 Q1007
  • 232200Z AUTO 19006KT 9999 -RA FEW017/// SCT035/// BKN043/// ///TCU 09/07 Q1008
  • 232130Z AUTO 18004KT 9999 -RA BKN028/// OVC033/// ///TCU 09/07 Q1008

Prévision TAF périmée.
ATIS : +33 2 31 65 65 36
Pas de NOTAMs connus pour ce terrain.



MET'MAP, la Météo Aéronautique d'un coup d'oeil ! - Copyright ORBIFLY Décembre 2007 - Disclaimer

ORBIFLY MET'MAP TEAM :

Programmation & Développement : Alexandra Zaïnal
Conception & Développement : Baudouin d'Aumeries
Co-Programmation & Développement : Marc-Olivier Méhu
Soutien technique & logistique : Manuel Goepfert

Contact : metmap@orbifly.com




SOURCES & CREDITS :

   NOAA